Погода Шауляй

Погода Шауляй : погода сейчас, прогноз погоды и архив. Всё, что Вы хотите узнать о погоде Шауляй!

Поиск расширенной информации на нашем сайте:

Другие новости

Новости СМИ2

Главная страница сайта

Новости сайта

03.07.2017

Напоминаем, что на нашем специализированном сайте Метеоцентр.Азия вы можете получить высокодетализированные автоматические прогнозы погоды по пунктам России, СНГ и мира в авиационном формате (включающие направление и скорость ветра, видимость, явления погоды, количество и форму облачности, нижнюю и верхнюю границу облачности).

Рекомендуем: лимузины дешево москва

Погода Шауляй - сегодня

Время (UTC), дата Ветер
(°,м/с) 
Видим.   Явления Облачность Т
(°С)
Тd
(°С)
f(%) Тe
(°С)
Pmin
(гПа)
dP
(гПа)
Po
(мм)
O2
(г/м3)
Тmin Tmax R s Состояние
почвы
03 21.02.18 тихо () -0{03}  7000 м  слаб. снег  10/10 900 м 
[Ns]
-8.4 -9.4 92 -8  1026.1  -0.4  759  317           
06 21.02.18 330 (СЗ) 1-2{03}  6000 м  в посл. час снег  10/6 930 м средняя 
[Sc|Ac As]
-9.2 -10.3 92 -9  1026  -0.2  759  317  -9.3    0.0  равномерный
сухой снег
100% 
09 21.02.18 050 (СВ) 1-3{03}  11000 м  {снег}  8/8 270 м 
[Sc]
-8 -10.7 81 -8  1026.4  0.5  759  316           
12 21.02.18 040 (СВ) 2-4{04}  16000 м  {снег}  4/3 840 м верхняя 
[Sc|Ci sp]
-6.5 -10.6 73 -8  1026.5  0.2  759  314      0.0   
15 21.02.18 040 (СВ) 2-4{05}  12000 м    ясно 
-7.8 -10.5 81 -9  1026.7  0.1  759  316           
18 21.02.18 тихо () -0{04}  3100 м  дымка  3/3 300 м 
[Sc]
-12.7 -14 90 -13  1028.1  1.1  760  323    -6.1  0.0   
21 21.02.18 тихо () -0{02}  3400 м  дымка  ясно 
-14.3 -14.9 95 -14  1029.5  1.3  761  325           
00 22.02.18 тихо () -0{00}  6000 м  дымка  ясно 
-17.6 -18.8 90 -18  1030.6  0.9  762  330         
03 22.02.18 тихо () -0{00}  7000 м  дымка  ясно 
-18.4 -20.3 85 -18  1031  0.3  762  331           
06 22.02.18 тихо () -0{00}  9000 м  слаб. снег [диам. изморози 1 мм]  8/8 540 м 
[Sc]
-18.9 -20.8 85 -19  1031.7  0.7  763  332  -19.1    0.0  равномерный
сухой снег
100% 
09 22.02.18 070 (В) 1-2{02}  8000 м  дымка{снег} [диам. изморози 1 мм]  3/0 верхняя 
[Ci sp]
-11 -13 85 -11  1032.1  0.8  763  322           
12 22.02.18 070 (В) 1-3{04}  15000 м  {снег} [диам. изморози 0 мм]  3/3 1000 м 
[Sc]
-7.8 -11.9 72 -8  1031.6  -0.3  763  318      0.0   
15 22.02.18 040 (СВ) 1-3{04}  19000 м    ясно 
-9.7 -12.8 78 -10  1030.8  -0.9  762  320           
18 22.02.18 тихо () -0{03}  5000 м  дымка  ясно 
-15.3 -16.6 90 -15  1031.2  0.1  762  327    -7.6  0.0   
21 22.02.18 тихо () -0{00}  8000 м  дымка  ясно 
-18 -19.2 90 -18  1031.4  0.1  763  330           
00 23.02.18 тихо () -0{00}  6000 м  дымка  ясно 
-19.2 -21.1 85 -19  1030.9  -0.6  762  332         
03 23.02.18 тихо () -0{00}  2600 м  дымка  ясно 
-20 -21.9 85 -20  1029.6  -1.3  761  333           
06 23.02.18 тихо () -0{00}  1700 м  дымка  3/0 средняя 
[Ac trans]
-20.4 -22.3 85 -20  1029.7  0.1  761  333  -21      равномерный
сухой снег
100% 
09 23.02.18 180 (Ю) 1-3{03}  7000 м  дымка  ясно 
-8.9 -12.8 73 -9  1028.4  -0.7  761  318           
12 23.02.18 210 (ЮЗ) 12000 м    8/0 средняя, верхняя 
[Ac trans|Ci sp]
-6.3 -12.7 60 -9  1026.4  -1.8             
15 23.02.18 190 (Ю) 3-6{06}  11000 м    10/0 средняя 
[As op]
-7.9 -12.5 69 -11  1024.4  -2.1  758  316           
18 23.02.18 140 (ЮВ) 3-5{07}  1700 м  слаб. снег  10/10 200 м 
[Frnb|Ns]
-9.1 -10.6 89 -12  1023.8  -0.6  757  317    -5.9  0.7   
21 23.02.18 110 (В) 3-7{07}  1600 м  слаб. снег  10/10 200 м 
[Frnb|Ns]
-9.6 -10.8 91 -13  1025.1  1.2  758  318           
00 24.02.18 070 (В) 4-7{08}  1600 м  слаб. снег  10/10 200 м 
[Frnb|Ns]
-10.1 -11.4 90 -14  1027.6  2.5  760  319      11   
03 24.02.18 050 (СВ) 2-4{08}  19000 м  {снег}  3/0 верхняя 
[Ci sp]
-14.5 -15.8 90 -17  1030.1  2.2  762  326           
Время (UTC), дата Ветер
(°,м/с) 
Видим.   Явления Облачность Т
(°С)
Тd
(°С)
f(%) Тe
(°С)
Pmin
(гПа)
dP
(гПа)
Po
(мм)
O2
(г/м3)
Тmin Tmax R s Состояние
почвы

Для получения пояснительной информации подведите курсор к названию столбца.

ПОГОДА Шауляй - архив

Всё, что Вы хотите узнать о погоде Шауляй - удобно и подробно!

Выберите нужную дату (начиная с 1 января 2015* года) и нажмите кнопку "Найти".
Будут отображены архивные сводки погоды по пункту Шауляй, начиная с указанной даты.


Отображать данные в формате CSV (для использования в таблицах Excel)


Внимание! Наш архив погоды предназначен исключительно для личного некоммерческого использования в познавательных целях. Если Вам необходимы официальные справки о состоянии погоды (для производственных, юридических, коммерческих и т.п. целей), обращайтесь в органы Росгидромета.

*Примечание: данная дата относится к архиву по метеостанциям СССР (Россия, СНГ, Балтия).
Архив по метеостанциям Зарубежной Европы и Азии (кроме Китая) хранится 10 дней, по другим регионам земного шара (Китай, Африка, Америка, Австралия, Океания) - 1 день.

Шауляй - район местоположения метеостанции


Название, широта, долгота, высота метеостанции:
Шауляй 55.9°ш. 23.3°д. 107 м над ур. моря [Литва]

Дополнительная информация

В oтличие oт бoльшинства пoгoдных сайтoв мы публикуем пoдрoбную метеoинфoрмацию в детальнoм прoфессиoнальнoм фoрмате.

Характеристики температуры и влажнoсти вoздуха измеряются на высoте 2 м в тени вдали oт зданий и деревьев.
Скoрoсть ветра измеряется на высoте 10 м (на урoвне рoста челoвека скoрoсть ветра ниже в 1.5-2 раза). Если метеoстанция нахoдится в гoрoде или в лесу, тo скoрoсть ветра занижена на 2-4 м/с пo сравнению с oткрытым местoм. Скoрoсть ветра над акватoриями крупных рек и oзёр, а также на вершинах хoлмoв на 2-5 м/с выше, чем в oбычных услoвиях.
Атмoсфернoе давление в разных тoчках местнoсти мoжет значительнo oтличаться oт давления на метеoстанции, в зависимoсти oт услoвий рельефа (при пoдъёме на 10 м давление пoнижается примернo на 1 мм рт.ст.).